[[{"header":{"parameterUnit":"m.s-1","parameterCategory":1,"la1":30.2991,"la2":30.254,"lo1":-89.0895,"lo2":-89.0444,"dy":0.0017,"dx":0.0017,"nx":28,"ny":28,"refTime":"2025-05-18T09:00:00:Z","depth":0,"parameterNumber":2,"parameterNumberName":"U-component_of_WINDS"},"data":[0,0,0,0,0,0,0,0,0,0,0,0,0,0,0,0,0,0,0,0,0,0,0,0,0,0,0,0,0,0,0,0,0,0,0,0,0,0,0,0,0,0,0,0,0,0,0,0,0,0,0,0,0,0,0,0,0,0,-0.9245,-0.9244,0,-0.9148,-0.9147,-0.9145,-0.91,-0.91,-0.91,-0.9101,-0.8999,-0.8997,-0.8994,0,0,0,0,0,0,0,0,0,0,0,0,0,-0.9392,-0.939,-0.9245,-0.9244,-0.9243,-0.9148,-0.9146,-0.9145,-0.91,-0.91,-0.9101,-0.9101,-0.9,-0.8997,-0.8994,0,0,0,0,0,0,0,0,0,0,0,0,0,-0.9315,-0.9389,-0.9246,-0.9209,-0.9205,-0.9148,-0.9146,-0.9145,-0.91,-0.91,-0.9101,-0.9101,-0.9001,-0.8997,-0.8993,-0.8965,0,0,-0.898,-0.8979,0,0,0,0,0,0,0,0,-0.932,-0.931,-0.9216,-0.9212,-0.9207,-0.9136,-0.9161,-0.9084,-0.91,-0.914,-0.9101,-0.9101,-0.9045,-0.9037,-0.9018,-0.896,-0.8956,-0.898,-0.8978,-0.8976,-0.8975,0,0,0,0,0,0,0,-0.9325,-0.9314,-0.9207,-0.9214,-0.9209,-0.9197,-0.9187,-0.9146,-0.9093,-0.9137,-0.9133,-0.9122,-0.9042,-0.9022,-0.9016,-0.8954,-0.898,-0.8976,-0.8974,-0.8972,-0.8868,-0.8868,0,0,0,0,0,0,-0.9336,-0.9318,-0.921,-0.9204,-0.9265,-0.9195,-0.9183,-0.9159,-0.9093,-0.9083,-0.9122,-0.912,-0.903,-0.9021,-0.9012,-0.8974,-0.8976,-0.8972,-0.8969,-0.8868,-0.8868,-0.8868,0,0,0,0,0,0,-0.934,-0.9327,-0.9214,-0.926,-0.9245,-0.9192,-0.9166,-0.9157,-0.9137,-0.9082,-0.9072,-0.9112,-0.9029,-0.9018,-0.8977,-0.897,-0.897,-0.8966,-0.8869,-0.8868,-0.8868,-0.89,0,0,0,0,0,0,-0.9344,-0.9329,-0.9317,-0.926,-0.9243,-0.9181,-0.9165,-0.9155,-0.913,-0.9127,-0.907,-0.9061,-0.9028,-0.8984,-0.8973,-0.8965,-0.8963,-0.8869,-0.8869,-0.8868,-0.8899,-0.89,-0.8901,0,0,0,0,0,-0.935,-0.933,-0.9317,-0.9304,-0.9228,-0.9181,-0.917,-0.9134,-0.913,-0.9118,-0.9083,-0.9062,-0.8973,-0.898,-0.8967,-0.8958,-0.8869,-0.8869,-0.8868,-0.8898,-0.89,-0.8901,0,0,0,0,0,0,-0.9387,-0.9322,-0.9307,-0.9268,-0.923,-0.9173,-0.9157,-0.9137,-0.9099,-0.9098,-0.9054,-0.9042,-0.9005,-0.8977,-0.8986,-0.8927,-0.8919,-0.8916,-0.8946,-0.8948,-0.8949,-0.8956,-0.896,0,0,0,0,0,-0.9391,-0.9359,-0.9303,-0.9274,-0.9256,-0.921,-0.9188,-0.9164,-0.9123,-0.9106,-0.9068,-0.9029,-0.8992,-0.8968,-0.8931,-0.8895,-0.8882,-0.8882,-0.8884,-0.8885,-0.8882,-0.8861,-0.8861,-0.8866,-0.8866,-0.8866,0,0,-0.9399,-0.9359,-0.9341,-0.9281,-0.9249,-0.9216,-0.9197,-0.9163,-0.9138,-0.9101,-0.906,-0.9031,-0.8984,-0.8946,-0.8927,-0.8921,-0.8878,-0.8884,-0.8886,-0.8882,-0.8861,-0.886,-0.886,-0.8865,-0.8866,-0.8866,0,0,-0.9396,-0.9362,-0.9335,-0.9303,-0.9255,-0.9224,-0.9218,-0.9164,-0.9143,-0.9102,-0.9073,-0.9043,-0.898,-0.8948,-0.8923,-0.8909,-0.8889,-0.8898,-0.8905,-0.8884,-0.8884,-0.8883,-0.8878,-0.8877,-0.8896,-0.8896,-0.8896,0,-0.9411,-0.936,-0.9323,-0.9291,-0.9265,-0.9231,-0.9202,-0.9173,-0.9115,-0.9098,-0.9093,-0.9014,-0.898,-0.8934,-0.893,-0.8912,-0.8903,-0.8904,-0.8887,-0.8886,-0.8885,-0.8879,-0.8878,-0.8898,-0.8897,-0.8897,-0.8897,0,-0.9382,-0.9347,-0.9331,-0.9276,-0.9249,-0.9219,-0.9176,-0.9153,-0.9131,-0.9101,-0.906,-0.9018,-0.8972,-0.8959,-0.8937,-0.891,-0.8908,-0.8896,-0.8887,-0.8887,-0.8881,-0.8878,-0.89,-0.8899,-0.8899,-0.8898,0,0,-0.9399,-0.9324,-0.9319,-0.9294,-0.9238,-0.9211,-0.9179,-0.9135,-0.9115,-0.9077,-0.9049,-0.8997,-0.8986,-0.8958,-0.8932,-0.8915,-0.8906,-0.8904,-0.8902,-0.8906,-0.8872,-0.8882,-0.888,-0.8892,-0.8892,-0.8891,-0.8876,0,-0.9388,-0.933,-0.9295,-0.9251,-0.9219,-0.9186,-0.9159,-0.9122,-0.9093,-0.9061,-0.9029,-0.8993,-0.8981,-0.8964,-0.8945,-0.8911,-0.8898,-0.8911,-0.8865,-0.8864,-0.8878,-0.8876,-0.8886,-0.8874,-0.8874,-0.8873,-0.8873,0,-0.9367,-0.9329,-0.9282,-0.9231,-0.9216,-0.9192,-0.9148,-0.9118,-0.9076,-0.9056,-0.9026,-0.9,-0.8965,-0.896,-0.8911,-0.8921,-0.89,-0.8881,-0.8879,-0.8873,-0.8868,-0.887,-0.8869,-0.8867,-0.8869,-0.8869,-0.8869,0,-0.9384,-0.9321,-0.9285,-0.9265,-0.9204,-0.9187,-0.9161,-0.9119,-0.9094,-0.9056,-0.904,-0.8999,-0.8976,-0.8944,-0.8908,-0.8907,-0.8863,-0.8854,-0.8845,-0.8846,-0.8836,-0.8837,-0.8832,-0.8824,-0.8824,-0.8824,-0.8824,0,-0.9374,-0.9347,-0.9292,-0.927,-0.9238,-0.9199,-0.9168,-0.9139,-0.9102,-0.9073,-0.9043,-0.9016,-0.897,-0.8938,-0.891,-0.8874,-0.8864,-0.8847,-0.8839,-0.8849,-0.8851,-0.8834,-0.8834,-0.8824,-0.8824,-0.8824,-0.8824,0,-0.9388,-0.935,-0.9308,-0.9254,-0.924,-0.9219,-0.9172,-0.9149,-0.9119,-0.9084,-0.9073,-0.9026,-0.8987,-0.8948,-0.8895,-0.8876,-0.884,-0.883,-0.8855,-0.885,-0.8843,-0.8844,-0.8826,-0.8821,-0.8818,-0.8818,-0.8818,0,-0.9384,-0.9362,-0.9306,-0.9285,-0.9259,-0.9225,-0.92,-0.9161,-0.9136,-0.9087,-0.907,-0.9028,-0.8993,-0.8932,-0.8893,-0.8853,-0.8841,-0.8838,-0.8835,-0.8846,-0.8841,-0.8842,-0.884,-0.8839,-0.8839,-0.8839,-0.884,0,-0.9382,-0.9364,-0.9329,-0.9288,-0.9259,-0.9225,-0.9189,-0.9174,-0.9128,-0.9101,-0.9061,-0.9034,-0.8981,-0.894,-0.8895,-0.8867,-0.8846,-0.8841,-0.8836,-0.8846,-0.8861,-0.8852,-0.8858,-0.8841,-0.8841,-0.8841,-0.8841,-0.8841,-0.9386,-0.9365,-0.9322,-0.9284,-0.9254,-0.9221,-0.9197,-0.9165,-0.9131,-0.9084,-0.9063,-0.9023,-0.8981,-0.8918,-0.8892,-0.8859,-0.8853,-0.8847,-0.8845,-0.8844,-0.8846,-0.8867,-0.8851,-0.8851,-0.8851,-0.8851,-0.8851,0,-0.9381,-0.9352,-0.9318,-0.927,-0.924,-0.9223,-0.9183,-0.9159,-0.9124,-0.9087,-0.9054,-0.9008,-0.8968,-0.8926,-0.8885,-0.8867,-0.8856,-0.8857,-0.8857,-0.8851,-0.8854,-0.8862,-0.8867,-0.8867,-0.8867,-0.8867,-0.8867,-0.8867,-0.9375,-0.9339,-0.9317,-0.9265,-0.9236,-0.9196,-0.9175,-0.9145,-0.9115,-0.9065,-0.9032,-0.9006,-0.8967,-0.8922,-0.8885,-0.8874,-0.8859,-0.8863,-0.8849,-0.8852,-0.8851,-0.885,-0.8857,-0.8861,-0.8861,-0.8849,-0.8849,-0.8849]},{"header":{"parameterUnit":"m.s-1","parameterCategory":1,"la1":30.2991,"la2":30.254,"lo1":-89.0895,"lo2":-89.0444,"dy":0.0017,"dx":0.0017,"nx":28,"ny":28,"refTime":"2025-05-18T09:00:00:Z","depth":0,"parameterNumber":3,"parameterNumberName":"V-component_of_WINDS"},"data":[0,0,0,0,0,0,0,0,0,0,0,0,0,0,0,0,0,0,0,0,0,0,0,0,0,0,0,0,0,0,0,0,0,0,0,0,0,0,0,0,0,0,0,0,0,0,0,0,0,0,0,0,0,0,0,0,0,0,4.5,4.5,0,4.5069,4.5069,4.507,4.5039,4.5037,4.5036,4.5034,4.5098,4.5101,4.5104,0,0,0,0,0,0,0,0,0,0,0,0,0,4.4834,4.4837,4.4999,4.5,4.5001,4.5069,4.5069,4.507,4.5039,4.5037,4.5035,4.5033,4.5096,4.51,4.5104,0,0,0,0,0,0,0,0,0,0,0,0,0,4.4905,4.4838,4.4999,4.4994,4.4994,4.5068,4.5069,4.5071,4.504,4.5037,4.5035,4.5032,4.5095,4.51,4.5105,4.5186,0,0,4.512,4.5122,0,0,0,0,0,0,0,0,4.4901,4.4911,4.4994,4.4995,4.4995,4.5043,4.5034,4.5109,4.504,4.5022,4.5034,4.5031,4.5081,4.5087,4.5105,4.5189,4.5191,4.512,4.5123,4.5125,4.5127,0,0,0,0,0,0,0,4.4896,4.4907,4.5027,4.4995,4.4996,4.4986,4.4993,4.5048,4.5065,4.5024,4.5022,4.5031,4.5081,4.51,4.5106,4.5192,4.512,4.5124,4.5127,4.5129,4.5347,4.535,0,0,0,0,0,0,4.4892,4.4904,4.5024,4.5029,4.4941,4.4991,4.4999,4.503,4.5064,4.5067,4.5033,4.5029,4.5093,4.5101,4.5108,4.5207,4.5125,4.513,4.5133,4.5344,4.5347,4.5351,0,0,0,0,0,0,4.4889,4.4903,4.5022,4.4966,4.498,4.4997,4.5031,4.5033,4.5053,4.5071,4.5073,4.5051,4.5092,4.5102,4.5168,4.5209,4.5132,4.5136,4.5341,4.5345,4.5349,4.5404,0,0,0,0,0,0,4.4884,4.4902,4.4934,4.4967,4.4983,4.5082,4.5034,4.5036,4.5062,4.5058,4.5088,4.5091,4.509,4.516,4.5172,4.5214,4.514,4.5337,4.5343,4.5348,4.5398,4.5409,4.5419,0,0,0,0,0,4.4878,4.4945,4.4936,4.4951,4.5025,4.5084,4.5093,4.5094,4.5065,4.5097,4.5109,4.509,4.5202,4.5167,4.5181,4.5224,4.5334,4.5341,4.5347,4.5394,4.5407,4.5418,0,0,0,0,0,0,4.4914,4.4949,4.494,4.502,4.505,4.5079,4.5119,4.5108,4.5144,4.5138,4.5135,4.5142,4.5211,4.5223,4.5184,4.5305,4.5264,4.5273,4.5294,4.5307,4.5317,4.5313,4.5144,0,0,0,0,0,4.4932,4.498,4.5006,4.5074,4.509,4.5102,4.5128,4.5126,4.5156,4.5167,4.5184,4.5212,4.5253,4.5281,4.532,4.54,4.5406,4.5436,4.5446,4.5454,4.5463,4.5507,4.5521,4.5372,4.5372,4.5371,0,0,4.4967,4.4993,4.5023,4.5082,4.5105,4.5153,4.5113,4.5165,4.52,4.5174,4.5239,4.5252,4.5283,4.5357,4.539,4.537,4.5505,4.5463,4.5469,4.5473,4.5515,4.5529,4.5542,4.5376,4.5375,4.5374,0,0,4.5058,4.5082,4.5142,4.5167,4.5204,4.5211,4.5226,4.5257,4.5266,4.5332,4.5314,4.5354,4.5426,4.5449,4.547,4.5571,4.5555,4.5583,4.5637,4.568,4.5692,4.5702,4.574,4.5753,4.5591,4.5591,4.5592,0,4.5098,4.5172,4.5174,4.5229,4.5255,4.5237,4.5297,4.532,4.5366,4.5384,4.5361,4.5452,4.5471,4.5551,4.5576,4.5593,4.5609,4.558,4.5691,4.5701,4.5711,4.5746,4.576,4.5595,4.5594,4.5594,4.5594,0,4.522,4.5271,4.5315,4.5364,4.5395,4.5452,4.5461,4.5491,4.5487,4.5497,4.5563,4.5586,4.563,4.5648,4.5643,4.5728,4.5714,4.5691,4.565,4.5728,4.5762,4.5775,4.56,4.5599,4.5598,4.5597,0,0,4.5335,4.5386,4.5402,4.5425,4.5464,4.5503,4.5558,4.5604,4.5631,4.5663,4.571,4.5771,4.5751,4.5775,4.5772,4.581,4.589,4.5782,4.5782,4.5802,4.5986,4.6004,4.602,4.5879,4.5882,4.5884,4.5984,0,4.543,4.5531,4.5535,4.5626,4.5674,4.5658,4.5706,4.5734,4.5745,4.5785,4.5795,4.584,4.5809,4.5824,4.586,4.5872,4.5927,4.5865,4.5921,4.5923,4.5916,4.6037,4.6056,4.615,4.5996,4.5999,4.6,0,4.5554,4.5595,4.5692,4.5726,4.5746,4.579,4.5834,4.5873,4.5904,4.5909,4.5937,4.5928,4.5984,4.594,4.6016,4.5974,4.5997,4.6006,4.601,4.6016,4.5967,4.6047,4.6179,4.6194,4.602,4.6019,4.6017,0,4.5631,4.5708,4.5777,4.5797,4.5838,4.587,4.5888,4.5917,4.5945,4.5981,4.5999,4.6041,4.6064,4.6095,4.6098,4.6066,4.6174,4.6131,4.618,4.618,4.6204,4.6203,4.6343,4.6217,4.6217,4.6216,4.6216,0,4.5737,4.5797,4.5813,4.5855,4.5922,4.5924,4.599,4.6005,4.6031,4.6075,4.6062,4.6103,4.6103,4.6144,4.6146,4.6209,4.6219,4.6224,4.6224,4.6226,4.6226,4.6242,4.6236,4.622,4.6219,4.6218,4.6218,0,4.5834,4.5847,4.5921,4.5955,4.5965,4.6013,4.6041,4.608,4.609,4.6146,4.6159,4.6173,4.6221,4.6227,4.6282,4.6283,4.636,4.6352,4.635,4.635,4.6399,4.6395,4.6555,4.6576,4.6435,4.6437,4.6438,0,4.5902,4.5949,4.5989,4.6019,4.604,4.6088,4.6117,4.6121,4.6151,4.6192,4.6226,4.6274,4.6312,4.6389,4.6403,4.6445,4.6439,4.6492,4.6445,4.6446,4.6441,4.6439,4.6444,4.6502,4.6503,4.6504,4.6506,0,4.6022,4.6026,4.6071,4.6118,4.6155,4.6191,4.6225,4.625,4.6257,4.6292,4.6343,4.6373,4.6431,4.6478,4.6519,4.6535,4.6522,4.652,4.6534,4.6537,4.6535,4.6539,4.6377,4.6517,4.6516,4.6515,4.6514,4.6514,4.6107,4.6149,4.6185,4.6235,4.6261,4.6294,4.6334,4.635,4.6393,4.6443,4.6441,4.6497,4.6527,4.6583,4.6602,4.6644,4.6626,4.6646,4.6651,4.6656,4.6662,4.6528,4.6652,4.6651,4.6651,4.6651,4.665,0,4.6228,4.625,4.6297,4.6347,4.6386,4.6373,4.641,4.6443,4.6494,4.6524,4.6563,4.6621,4.6667,4.6686,4.673,4.6761,4.6756,4.6772,4.6771,4.6775,4.6675,4.6659,4.6776,4.6776,4.6776,4.6776,4.6776,4.6776,4.6295,4.6366,4.6374,4.6457,4.6478,4.6536,4.6558,4.6588,4.6613,4.668,4.6719,4.6732,4.6757,4.6804,4.6845,4.6849,4.6866,4.6886,4.6888,4.6794,4.6782,4.677,4.6755,4.689,4.689,4.6984,4.6985,4.6986]}]]